Location: Albuquerque Trailhead
(34.7934°N, 106.3736°W)
Time: 14:56:26
(UTC+00:00)

POLYITAN 1 - Pass Details

Date: 27 April 2024
Orbit: 551 x 569 km, 98.1° (Epoch: 25 May)

Event Time Altitude Azimuth Distance (km) Brightness Sun altitude
Rises 09:53:00 0° 21° (NNE) 2,786 ? -26.7°
Maximum altitude 09:59:05 38° 99° (E) 879 ? -25.8°
Enters shadow 09:59:33 37° 116° (ESE) 902 ? -25.7°
